Location: Unspecified
(52.4292°N, 19.3359°E)
Time: 00:31:41
(UTC+02:00)

Vanguard 1 Rocket - Pass Details

Date: 22 May 2024
Orbit: 649 x 4221 km, 34.3° (Epoch: 13 June)

Event Time Altitude Azimuth Distance (km) Brightness Sun altitude
Rises 08:59:49 0° 214° (SW) 8,257 12.1 37.3°
Reaches altitude 10° 09:07:29 10° 204° (SSW) 6,853 11.9 38.4°
Maximum altitude 09:22:20 25° 160° (SSE) 4,472 11.7 40.6°
Drops below altitude 10° 09:32:13 10° 112° (ESE) 4,491 12.1 42.0°
Sets 09:35:50 0° 99° (E) 5,024 12.0 42.5°
